Location: LDNL
(36.4545°S, 141.6685°E)
Time: 12:32:14
(UTC+10:00)

Vanguard 3 - Pass Details

Date: 26 January 2022
Orbit: 508 x 3258 km, 33.3° (Epoch: 25 May)

Event Time Altitude Azimuth Distance (km) Brightness Sun altitude
Rises 05:08:48 0° 265° (W) 5,399 - -16.8°
Exits shadow 05:09:25 - 265° (W) 5,253 10.9 -16.7°
Reaches altitude 10° 05:11:48 10° 266° (W) 4,702 10.6 -16.4°
Maximum altitude 05:26:26 74° 347° (NNW) 3,043 9.8 -14.1°
Drops below altitude 10° 05:46:29 10° 67° (ENE) 6,166 12.1 -10.8°
Sets 05:51:07 0° 68° (ENE) 7,083 12.5 -10.0°
